Temp_Advection
nan nan nan nan nan nan nan nan nan nan nan nan nan nan nan nan nan nan nan nan nan nan nan nan nan nan nan nan nan nan nan nan nan nan nan nan nan nan
nan -0 -0 -0 -0 0 0 1 0 -0 0 0 0 1 0 -0 0 0 -0 -0 -0 -0 -0 -0 -0 -0 -0 -0 -0 0 1 0 -0 -1 -1 -1 -0 nan
nan 0 -0 0 0 0 0 0 0 0 0 0 0 0 0 0 0 0 -0 -0 -0 -0 -0 -0 -0 -0 -0 -0 -0 -0 1 1 0 -0 -1 -1 -0 nan
nan 0 0 0 0 0 0 0 0 0 0 0 0 0 0 -0 -0 0 0 -0 -0 -0 -0 -0 0 -0 -0 -0 -0 -0 -0 1 2 0 -1 -1 -0 nan
nan 0 0 0 0 0 0 0 -0 -0 -0 0 0 0 0 -0 -0 -0 0 0 0 -0 -0 0 -0 -0 -0 -0 -0 -0 -0 0 1 1 -0 -0 -0 nan
nan 1 0 0 0 0 0 -0 -0 -0 -0 -0 0 0 -0 -0 -0 -1 -0 -0 0 1 0 0 0 0 0 0 0 0 0 1 0 -0 -0 -0 -0 nan
nan 0 0 0 0 0 -0 -0 -0 -0 -0 -0 -0 0 -0 -0 -0 -1 -1 -1 -1 -0 -1 0 0 0 0 0 0 0 1 1 0 -0 -0 -0 -0 nan
nan 0 0 0 -0 0 -0 -0 -0 -0 -0 -0 -0 -0 -0 -0 -0 -0 -1 -2 -2 -1 -3 -1 -0 -1 -0 0 0 -0 1 1 0 0 -0 -1 -0 nan
nan 0 0 0 -0 -0 -0 -0 -0 -0 -0 -0 -0 -0 0 -0 -1 -1 -0 -1 -1 -0 -1 -3 -1 -1 -1 -0 -0 -0 1 0 -0 0 0 -1 -1 nan
nan 0 0 -0 -0 -0 -0 -0 -0 -0 -0 -0 -0 -0 -0 -0 -1 -1 -1 -1 -2 -0 1 -2 -2 -2 -2 -1 -0 0 -0 1 0 1 1 -0 -1 nan
nan -0 0 0 -0 -0 -0 -0 -0 -0 -0 -0 -0 -0 0 0 -0 -1 -0 -1 -2 -2 -0 -0 -2 -3 -4 -2 -0 0 0 0 -0 -0 1 1 -0 nan
nan 0 -0 -0 -0 -0 -0 -0 -0 -0 -0 -0 0 0 -0 0 1 0 -0 -0 -1 -2 -1 -0 -1 -1 -2 -2 -1 -1 -0 -0 -0 -0 -0 1 0 nan
nan -0 -0 -0 -0 -0 -0 -0 -0 -0 -0 -0 0 0 0 0 0 0 1 0 0 -0 -0 1 -0 -0 -0 -2 -3 -2 -1 -1 -1 -0 -0 -0 0 nan
nan -0 -0 -0 -0 -0 -0 -0 -0 -0 -0 0 0 0 0 0 1 1 1 1 0 1 0 1 0 0 0 -0 -3 -2 -1 -0 -0 -0 -0 -0 -0 nan
nan -0 -0 -0 -0 -0 -0 -0 -0 -0 -0 -0 -0 -0 -0 0 0 0 1 1 0 1 1 1 1 0 0 0 -1 -1 -1 -1 0 -0 -0 -1 -1 nan
nan -0 -0 -0 -0 -0 -0 -0 -0 0 0 -0 -0 -0 -0 -1 0 0 0 0 -1 -1 0 1 1 1 0 0 -0 -1 0 -0 -0 0 0 -0 -1 nan
nan -0 -0 -0 -0 -0 0 0 -0 0 0 0 -0 -0 -0 -0 -1 -0 -0 0 -0 -1 -1 0 0 1 0 1 -0 -0 -0 -0 -0 -0 0 -0 -0 nan
nan -0 -0 -0 -0 -0 -0 -0 0 0 0 0 0 0 0 0 -0 0 0 0 -0 -0 -0 -0 -0 -0 -1 -0 1 -0 -1 -0 -0 0 0 -0 -1 nan
nan -0 -0 -0 -0 -0 -0 -0 0 0 0 0 1 0 1 0 0 -0 0 0 -0 -0 -0 -0 0 0 -0 -2 -2 0 -0 -1 -1 -0 -0 -0 -1 nan
nan 0 -0 -0 -0 -0 -0 -0 0 0 1 1 1 1 1 0 0 0 0 -0 -0 -0 -0 -0 0 0 0 0 -2 -2 0 0 -0 -1 -1 -1 -1 nan
nan 0 0 0 0 0 0 -0 0 0 1 1 1 1 1 1 0 0 0 0 0 -0 -0 -0 0 0 0 -0 -1 -1 -1 0 1 1 0 0 -1 nan
nan 0 0 0 0 0 0 0 0 0 0 1 1 0 0 0 0 0 0 0 0 0 -0 -1 -0 0 0 0 -1 -1 -1 -1 0 0 1 2 1 nan
nan nan nan nan nan nan nan nan nan nan nan nan nan nan nan nan nan nan nan nan nan nan nan nan nan nan nan nan nan nan nan nan nan nan nan nan nan nan
Wind_Speed
22 24 24 23 25 22 19 18 23 18 18 16 14 16 15 15 18 19 18 17 18 20 21 22 23 24 25 25 26 25 24 20 19 20 22 23 24 24
23 23 20 20 18 17 13 18 19 14 9 15 15 14 13 16 17 17 17 19 20 21 22 22 23 24 25 27 26 25 22 20 20 21 21 21 21 22
24 21 21 19 17 15 15 15 13 9 7 9 10 11 13 14 14 15 17 20 21 21 21 21 23 24 25 26 26 24 24 21 21 20 20 20 21 23
25 22 21 18 15 13 12 9 5 3 3 3 5 7 11 13 14 16 18 21 21 20 20 21 21 22 25 26 24 24 24 24 24 21 19 21 21 20
21 19 18 15 13 11 8 5 2 1 3 3 5 9 11 14 15 17 18 19 19 20 18 19 20 23 25 26 24 23 23 25 25 21 21 20 18 19
21 18 17 15 12 9 5 3 3 4 5 6 8 10 12 15 18 20 19 19 20 21 19 21 21 23 24 24 23 23 24 24 21 18 17 18 17 19
20 18 16 13 9 7 5 5 5 6 6 8 10 12 14 16 19 22 23 24 22 22 21 24 24 25 24 23 25 25 25 22 12 14 17 18 19 21
19 16 13 10 8 6 5 5 5 7 9 11 12 14 15 18 20 23 25 27 29 25 31 24 26 26 24 24 26 25 24 17 9 16 22 21 21 20
14 13 11 9 7 6 6 6 9 11 13 14 14 15 17 20 23 24 25 26 27 30 32 32 27 24 24 24 25 21 17 10 13 24 29 22 22 23
12 10 8 8 7 5 7 7 10 12 13 15 16 17 19 21 23 24 26 28 28 28 26 34 27 29 30 24 19 9 10 16 26 29 26 23 24 24
11 10 8 6 6 6 6 8 10 12 15 16 17 19 20 20 21 24 25 28 32 31 28 24 31 36 34 23 11 11 27 22 24 25 25 25 22 22
10 8 6 4 5 6 8 9 10 12 14 16 18 19 20 21 21 22 24 25 26 29 21 29 30 27 24 22 15 30 28 26 28 26 24 23 21 20
8 6 4 3 5 7 9 10 13 15 16 18 20 21 22 21 21 22 22 21 23 26 28 23 27 28 25 33 35 34 33 32 29 26 15 17 22 22
6 4 3 4 6 9 11 14 16 17 17 19 21 22 22 22 21 21 22 20 20 25 26 22 26 26 28 33 38 37 35 32 29 18 24 26 24 24
5 3 3 6 8 11 13 16 17 17 19 22 23 23 23 23 23 23 23 22 22 22 21 20 23 23 24 29 36 38 37 33 24 29 25 27 27 24
4 4 6 7 9 12 14 15 18 20 21 22 24 24 25 25 24 23 23 23 27 25 18 21 22 21 24 27 31 36 31 32 32 28 29 29 26 23
3 4 6 8 10 14 16 18 20 20 22 24 25 25 25 25 24 22 22 24 26 28 28 21 19 21 23 27 28 26 27 29 29 32 33 35 32 29
1 3 7 11 13 16 18 19 21 22 23 23 24 24 24 24 24 24 25 26 27 27 28 25 24 26 26 27 25 28 29 30 32 32 32 36 37 30
4 7 9 13 15 16 18 20 22 23 24 24 24 24 24 25 26 27 27 27 28 28 26 25 25 27 31 31 32 28 31 32 32 35 33 32 34 33
8 9 11 13 16 18 20 22 23 24 24 25 24 25 25 27 28 27 27 28 29 29 29 26 26 27 29 32 36 36 26 31 32 35 34 32 32 31
11 12 13 15 19 21 21 24 27 27 28 27 26 26 25 26 27 27 28 27 27 27 29 30 28 26 29 32 34 35 34 29 31 33 34 35 37 37
14 14 16 18 22 23 23 26 29 29 30 28 27 25 25 25 27 28 28 29 27 28 30 31 30 29 30 31 35 37 38 36 32 32 29 29 29 32
16 17 17 20 24 24 26 28 30 30 31 30 28 27 26 28 27 27 27 27 28 30 31 32 32 30 31 34 36 40 41 42 40 39 38 33 31 27
Wind_Direction
209 217 225 238 236 228 230 230 211 206 215 229 237 253 265 285 307 309 308 311 314 319 320 321 319 320 318 315 314 315 316 315 313 310 308 308 307 307
204 204 210 216 205 199 201 202 217 237 213 227 239 251 274 296 300 306 313 315 319 319 320 321 319 317 314 314 317 318 314 310 311 310 310 310 301 305
188 179 181 184 186 177 182 196 206 217 217 211 234 259 282 295 305 311 315 315 316 318 320 319 316 313 314 317 317 315 310 309 306 305 305 305 306 307
169 169 176 176 175 167 177 181 184 193 217 237 253 274 297 304 316 318 315 315 316 318 319 317 315 317 317 317 319 313 309 310 308 306 308 305 304 302
162 172 174 169 165 160 158 143 118 11 347 332 313 312 311 318 317 315 315 316 317 320 319 318 321 321 321 318 317 309 309 308 305 307 304 302 297 301
163 165 167 153 152 139 120 91 51 23 4 337 338 324 323 320 319 321 321 323 321 323 324 321 326 323 322 322 319 310 309 304 306 307 306 305 297 302
159 160 150 140 130 117 97 66 37 18 355 347 340 328 327 324 328 330 329 328 326 321 323 321 327 326 325 324 319 314 309 307 308 315 315 303 296 297
156 149 141 133 117 110 87 59 23 2 355 346 339 335 329 328 329 327 329 330 329 331 323 324 325 322 321 323 317 314 306 304 286 315 321 307 303 298
149 139 132 126 118 86 52 22 8 358 351 343 342 330 330 326 326 326 326 324 322 326 322 321 325 318 321 324 317 315 313 307 295 301 312 308 300 301
142 133 127 110 95 65 35 12 359 348 344 340 336 332 328 326 323 323 322 317 318 318 322 318 323 319 322 326 315 312 328 306 303 304 305 304 302 300
144 130 115 119 61 35 6 357 353 346 343 337 333 329 324 320 317 318 319 319 321 321 326 316 321 319 322 330 304 287 320 316 317 317 305 300 302 302
141 125 98 69 30 7 359 353 352 347 337 334 329 324 324 324 319 319 321 321 322 325 329 318 320 324 323 327 305 315 318 323 325 323 314 304 305 303
126 111 94 43 17 359 354 354 350 344 342 337 329 328 325 320 319 321 321 320 323 319 326 315 308 311 305 307 311 316 318 325 326 324 317 321 311 306
106 93 70 28 6 356 353 348 347 346 339 333 330 327 323 322 322 324 319 315 313 319 322 315 305 310 306 303 303 312 315 320 326 324 321 317 313 308
117 97 44 15 360 354 348 346 342 338 334 333 330 329 327 326 324 321 317 316 312 320 318 321 315 312 302 300 301 307 313 320 322 323 321 319 317 315
116 65 29 9 354 352 347 338 337 335 332 330 331 330 326 322 322 324 324 323 319 326 326 323 320 312 307 304 304 306 315 310 317 322 325 325 324 322
81 33 18 2 353 348 342 340 337 330 329 329 327 324 321 319 320 325 326 325 323 326 326 327 319 314 310 309 309 315 316 316 321 324 325 323 323 324
46 3 1 357 350 346 342 334 330 328 326 323 322 322 318 315 317 325 327 323 321 323 323 326 327 325 320 312 321 324 323 322 323 323 325 320 315 320
334 338 344 348 341 337 335 330 328 326 324 324 322 320 317 317 317 320 323 322 320 321 321 323 327 329 323 318 316 319 318 322 321 315 316 319 313 316
306 319 329 330 330 327 329 330 329 328 326 324 322 320 319 316 314 316 320 320 321 321 322 324 323 324 319 316 313 313 322 319 323 319 316 315 314 315
301 307 311 319 322 319 325 330 330 328 327 327 323 317 315 311 311 314 316 317 316 315 314 318 325 321 316 311 308 312 317 321 326 324 320 311 310 315
295 301 303 313 317 318 322 326 325 323 323 323 318 314 314 312 312 314 317 316 317 316 315 318 322 321 320 319 316 317 318 322 325 327 324 317 303 293
294 295 302 309 315 316 316 319 321 320 318 319 316 315 316 315 313 313 315 315 316 316 319 321 322 321 321 322 320 318 319 322 324 324 322 325 317 307
Height
1497 1503 1508 1515 1519 1519 1519 1520 1524 1524 1525 1527 1531 1530 1532 1531 1529 1528 1526 1523 1520 1518 1516 1512 1511 1508 1505 1502 1500 1498 1495 1493 1491 1490 1488 1486 1482 1479
1496 1499 1503 1514 1516 1514 1515 1519 1522 1523 1521 1524 1525 1528 1528 1528 1526 1525 1522 1519 1516 1514 1512 1508 1506 1504 1501 1497 1495 1492 1489 1487 1486 1484 1482 1480 1476 1474
1498 1495 1504 1512 1514 1512 1515 1517 1519 1519 1520 1522 1524 1524 1525 1525 1522 1520 1518 1516 1513 1510 1507 1504 1501 1500 1496 1491 1488 1486 1484 1481 1479 1478 1476 1475 1471 1469
1492 1497 1504 1509 1511 1509 1515 1516 1517 1517 1520 1520 1522 1522 1521 1520 1517 1516 1515 1513 1510 1505 1502 1500 1497 1495 1491 1486 1483 1480 1477 1474 1472 1471 1469 1468 1465 1463
1492 1501 1505 1508 1508 1510 1513 1512 1514 1516 1516 1517 1519 1518 1518 1515 1513 1513 1511 1509 1505 1501 1499 1496 1493 1490 1485 1481 1478 1475 1472 1470 1467 1466 1464 1461 1459 1458
1498 1501 1507 1504 1508 1509 1510 1511 1512 1513 1514 1517 1514 1515 1513 1511 1510 1508 1507 1504 1500 1497 1494 1492 1488 1484 1480 1476 1473 1469 1466 1464 1462 1460 1457 1455 1454 1451
1499 1505 1504 1504 1506 1507 1509 1509 1512 1512 1514 1513 1511 1512 1509 1508 1505 1502 1500 1497 1496 1492 1489 1486 1483 1479 1475 1471 1468 1464 1460 1458 1457 1455 1452 1450 1448 1446
1499 1501 1501 1503 1505 1507 1508 1507 1511 1512 1511 1511 1509 1506 1505 1503 1501 1499 1495 1492 1489 1487 1480 1481 1478 1474 1471 1468 1463 1458 1455 1452 1453 1451 1448 1445 1443 1440
1498 1500 1501 1503 1505 1507 1506 1508 1509 1508 1508 1508 1503 1504 1501 1500 1497 1494 1492 1489 1485 1481 1475 1471 1472 1468 1466 1463 1459 1454 1450 1449 1450 1446 1442 1439 1436 1433
1500 1500 1502 1502 1506 1507 1506 1507 1507 1507 1505 1503 1502 1500 1498 1496 1494 1489 1487 1484 1480 1478 1473 1463 1463 1460 1459 1458 1454 1450 1448 1446 1443 1439 1436 1433 1429 1425
1500 1501 1502 1505 1506 1506 1507 1507 1505 1504 1502 1500 1499 1498 1496 1493 1489 1486 1483 1479 1473 1471 1467 1461 1457 1452 1451 1451 1448 1446 1445 1441 1437 1432 1428 1424 1421 1418
1501 1500 1503 1505 1505 1508 1507 1506 1503 1502 1501 1498 1497 1496 1492 1489 1487 1483 1478 1475 1472 1465 1464 1459 1454 1452 1443 1440 1444 1441 1437 1435 1430 1426 1421 1416 1414 1411
1499 1501 1504 1505 1504 1506 1505 1502 1501 1500 1497 1495 1494 1491 1487 1485 1482 1479 1476 1472 1469 1464 1461 1458 1452 1450 1447 1437 1432 1434 1431 1427 1424 1419 1415 1412 1409 1406
1499 1502 1505 1505 1504 1503 1502 1500 1498 1494 1493 1492 1489 1486 1484 1481 1477 1474 1472 1470 1466 1462 1458 1455 1448 1445 1440 1435 1429 1426 1424 1422 1418 1413 1411 1406 1403 1400
1501 1504 1504 1503 1503 1500 1499 1497 1495 1491 1489 1487 1486 1483 1479 1475 1471 1470 1468 1464 1461 1459 1454 1450 1445 1440 1437 1431 1425 1421 1417 1414 1412 1408 1404 1400 1395 1392
1502 1503 1502 1501 1501 1498 1496 1495 1491 1487 1486 1485 1480 1477 1475 1471 1469 1466 1463 1460 1455 1452 1451 1445 1441 1436 1432 1429 1423 1416 1415 1409 1406 1403 1398 1393 1389 1386
1500 1501 1500 1500 1499 1496 1494 1490 1487 1487 1484 1480 1477 1474 1471 1468 1465 1462 1458 1454 1450 1444 1441 1440 1437 1433 1429 1424 1417 1414 1409 1404 1401 1395 1390 1384 1382 1379
1499 1499 1498 1496 1494 1491 1489 1489 1487 1483 1480 1477 1474 1469 1466 1463 1459 1456 1453 1450 1445 1441 1437 1434 1430 1426 1422 1418 1414 1408 1404 1399 1395 1390 1386 1379 1372 1372
1495 1495 1494 1492 1491 1490 1488 1486 1483 1479 1476 1472 1468 1465 1461 1458 1454 1451 1448 1444 1440 1436 1434 1430 1427 1423 1416 1410 1407 1406 1399 1395 1389 1383 1380 1376 1367 1363
1493 1492 1490 1490 1489 1488 1485 1482 1478 1474 1471 1468 1464 1460 1457 1453 1449 1446 1443 1438 1434 1430 1426 1426 1423 1419 1413 1407 1400 1395 1397 1389 1384 1377 1371 1366 1362 1357
1489 1489 1488 1486 1486 1483 1480 1476 1473 1470 1466 1462 1459 1456 1453 1449 1445 1441 1438 1435 1430 1427 1422 1419 1417 1414 1408 1403 1395 1389 1386 1386 1380 1371 1365 1360 1353 1348
1486 1485 1484 1482 1480 1477 1474 1471 1468 1464 1460 1457 1454 1451 1447 1443 1439 1436 1432 1428 1425 1422 1417 1413 1409 1405 1401 1396 1389 1382 1376 1373 1370 1366 1361 1356 1350 1341
1482 1481 1479 1477 1475 1472 1469 1466 1462 1459 1455 1451 1448 1445 1442 1438 1435 1431 1427 1424 1420 1415 1411 1405 1402 1399 1394 1389 1383 1375 1368 1363 1358 1353 1347 1347 1342 1337